timestamp,wind_dir_avg,wind_spd_avg,wind_spd_max_dir,wind_spd_gust,battery_voltage,lat,long
2021-07-16 00:04:00+00:00,217.0,7.74,218.0,8.23,13.21,47.59359,-54.27349
2021-07-16 00:14:01+00:00,213.0,6.73,213.0,7.65,12.73,47.59359,-54.27349
2021-07-16 00:24:01+00:00,216.0,5.78,215.0,6.72,12.73,47.59359,-54.27349
2021-07-16 00:34:01+00:00,212.0,6.85,213.0,7.63,12.73,47.59359,-54.27349
2021-07-16 00:44:01+00:00,210.0,7.02,214.0,8.05,12.73,47.59359,-54.27349
2021-07-16 00:54:01+00:00,209.0,7.63,208.0,8.32,12.73,47.59359,-54.27349
2021-07-16 01:04:01+00:00,208.0,8.01,208.0,8.71,12.73,47.59359,-54.27349
2021-07-16 01:14:00+00:00,204.0,7.82,205.0,8.6,12.65,47.59359,-54.27349
2021-07-16 01:24:00+00:00,210.0,8.64,214.0,9.44,12.65,47.59359,-54.27349
2021-07-16 01:34:00+00:00,214.0,8.82,215.0,10.26,12.65,47.59359,-54.27349
2021-07-16 01:44:00+00:00,212.0,9.51,212.0,10.47,12.65,47.59359,-54.27349
2021-07-16 01:54:00+00:00,211.0,9.34,214.0,10.54,12.65,47.59359,-54.27349
2021-07-16 02:04:00+00:00,211.0,9.61,212.0,10.57,12.65,47.59359,-54.27349
2021-07-16 02:14:00+00:00,209.0,9.26,211.0,10.03,12.65,47.59359,-54.27349
2021-07-16 02:24:00+00:00,209.0,8.47,210.0,9.38,12.65,47.59359,-54.27349
2021-07-16 02:34:00+00:00,204.0,7.97,206.0,9.16,12.65,47.59359,-54.27349
2021-07-16 02:44:00+00:00,202.0,6.91,197.0,7.83,12.65,47.59359,-54.27349
2021-07-16 02:54:00+00:00,208.0,5.75,211.0,6.63,12.65,47.59359,-54.27349
2021-07-16 03:04:00+00:00,208.0,6.26,209.0,6.77,12.65,47.59359,-54.27349
2021-07-16 03:14:00+00:00,209.0,6.03,208.0,6.67,12.57,47.59359,-54.27349
2021-07-16 03:24:00+00:00,206.0,6.58,210.0,7.11,12.57,47.59359,-54.27349
2021-07-16 03:34:00+00:00,206.0,6.66,203.0,7.67,12.57,47.59359,-54.27349
2021-07-16 03:44:00+00:00,205.0,7.05,205.0,7.73,12.57,47.59359,-54.27349
2021-07-16 03:54:00+00:00,203.0,7.17,205.0,8.27,12.57,47.59359,-54.27349
2021-07-16 04:04:00+00:00,211.0,7.55,213.0,8.5,12.57,47.59359,-54.27349
2021-07-16 04:14:00+00:00,210.0,7.26,209.0,7.83,12.57,47.59359,-54.27349
2021-07-16 04:24:00+00:00,207.0,6.98,209.0,7.83,12.57,47.59359,-54.27349
2021-07-16 04:34:00+00:00,208.0,6.8,205.0,7.54,12.57,47.59359,-54.27349
2021-07-16 04:44:00+00:00,212.0,7.62,214.0,8.56,12.57,47.59359,-54.27349
2021-07-16 04:54:00+00:00,215.0,8.23,215.0,9.11,12.57,47.59359,-54.27349
2021-07-16 05:04:00+00:00,211.0,8.2,211.0,9.2,12.57,47.59359,-54.27349
2021-07-16 05:14:00+00:00,211.0,6.76,216.0,7.94,12.57,47.59359,-54.27349
2021-07-16 05:24:00+00:00,211.0,6.46,208.0,7.1,12.57,47.59359,-54.27349
2021-07-16 05:34:00+00:00,206.0,6.64,209.0,7.2,12.57,47.59359,-54.27349
2021-07-16 05:44:00+00:00,202.0,6.9,203.0,7.33,12.57,47.59359,-54.27349
2021-07-16 05:54:00+00:00,206.0,7.35,199.0,9.59,12.57,47.59359,-54.27349
2021-07-16 06:04:00+00:00,209.0,7.12,211.0,7.81,12.57,47.59359,-54.27349
2021-07-16 06:14:01+00:00,211.0,7.24,211.0,8.21,12.57,47.59359,-54.27349
2021-07-16 06:24:01+00:00,217.0,5.58,218.0,6.53,12.57,47.59359,-54.27349
2021-07-16 06:34:01+00:00,220.0,7.46,218.0,8.11,12.57,47.59359,-54.27349
2021-07-16 06:44:01+00:00,216.0,6.59,215.0,7.37,12.57,47.59359,-54.27349
2021-07-16 06:54:01+00:00,215.0,5.97,215.0,7.03,12.57,47.59359,-54.27349
2021-07-16 07:04:01+00:00,212.0,6.79,212.0,7.63,12.57,47.59359,-54.27349
2021-07-16 07:14:01+00:00,211.0,6.53,208.0,7.34,12.49,47.59359,-54.27349
2021-07-16 07:24:01+00:00,209.0,6.33,218.0,7.26,12.49,47.59359,-54.27349
2021-07-16 07:34:01+00:00,203.0,5.88,204.0,7.04,12.49,47.59359,-54.27349
2021-07-16 07:44:01+00:00,186.0,6.23,202.0,7.3,12.49,47.59359,-54.27349
2021-07-16 07:54:01+00:00,166.0,5.91,164.0,6.46,12.49,47.59359,-54.27349
2021-07-16 08:04:01+00:00,178.0,5.81,206.0,6.56,12.49,47.59359,-54.27349
2021-07-16 08:14:00+00:00,172.0,6.13,195.0,6.66,12.41,47.59359,-54.27349
2021-07-16 08:24:00+00:00,167.0,6.03,168.0,6.57,12.41,47.59359,-54.27349
2021-07-16 08:34:00+00:00,184.0,6.05,204.0,6.83,12.41,47.59359,-54.27349
2021-07-16 08:44:00+00:00,182.0,6.71,202.0,7.82,12.41,47.59359,-54.27349
2021-07-16 08:54:00+00:00,209.0,7.58,211.0,8.32,12.41,47.59359,-54.27349
2021-07-16 09:04:00+00:00,212.0,7.19,212.0,7.91,12.41,47.59359,-54.27349
2021-07-16 09:14:00+00:00,206.0,6.65,202.0,7.49,12.57,47.59359,-54.27349
2021-07-16 09:24:00+00:00,200.0,6.85,200.0,7.5,12.57,47.59359,-54.27349
2021-07-16 09:34:00+00:00,201.0,7.09,198.0,8.34,12.57,47.59359,-54.27349
2021-07-16 09:44:00+00:00,201.0,6.4,201.0,7.34,12.57,47.59359,-54.27349
2021-07-16 09:54:00+00:00,208.0,5.65,208.0,6.39,12.57,47.59359,-54.27349
2021-07-16 10:04:00+00:00,206.0,5.63,208.0,6.3,12.57,47.59359,-54.27349
2021-07-16 10:14:01+00:00,202.0,5.13,201.0,6.15,13.21,47.59359,-54.27349
2021-07-16 10:24:01+00:00,195.0,5.74,196.0,6.22,13.21,47.59359,-54.27349
2021-07-16 10:34:01+00:00,201.0,6.0,207.0,6.76,13.21,47.59359,-54.27349
2021-07-16 10:44:01+00:00,204.0,5.78,204.0,6.5,13.21,47.59359,-54.27349
2021-07-16 10:54:01+00:00,197.0,6.49,201.0,7.33,13.21,47.59359,-54.27349
2021-07-16 11:04:01+00:00,196.0,7.38,194.0,8.0,13.21,47.59359,-54.27349
2021-07-16 11:14:01+00:00,198.0,7.46,200.0,8.12,13.53,47.59359,-54.27349
2021-07-16 11:24:01+00:00,200.0,6.76,200.0,7.73,13.53,47.59359,-54.27349
2021-07-16 11:34:01+00:00,204.0,7.22,203.0,8.1,13.53,47.59359,-54.27349
2021-07-16 11:44:01+00:00,209.0,7.38,211.0,7.98,13.53,47.59359,-54.27349
2021-07-16 11:54:01+00:00,209.0,8.17,211.0,9.12,13.53,47.59359,-54.27349
2021-07-16 12:04:01+00:00,213.0,8.17,216.0,8.95,13.53,47.59359,-54.27349
2021-07-16 12:14:00+00:00,215.0,8.25,214.0,8.96,13.68,47.59359,-54.27349
2021-07-16 12:24:00+00:00,204.0,7.98,205.0,8.89,13.68,47.59359,-54.27349
2021-07-16 12:34:00+00:00,205.0,7.15,205.0,7.89,13.68,47.59359,-54.27349
2021-07-16 12:44:00+00:00,200.0,7.55,205.0,8.34,13.68,47.59359,-54.27349
2021-07-16 12:54:00+00:00,206.0,7.95,207.0,8.76,13.68,47.59359,-54.27349
2021-07-16 13:04:00+00:00,211.0,8.08,212.0,9.23,13.68,47.59359,-54.27349
2021-07-16 13:14:01+00:00,205.0,8.47,209.0,9.4,14.0,47.59359,-54.27349
2021-07-16 13:24:01+00:00,199.0,7.93,206.0,8.83,14.0,47.59359,-54.27349
2021-07-16 13:34:01+00:00,200.0,8.02,205.0,8.82,14.0,47.59359,-54.27349
2021-07-16 13:44:01+00:00,187.0,7.81,202.0,9.19,14.0,47.59359,-54.27349
2021-07-16 13:54:01+00:00,187.0,8.52,201.0,9.98,14.0,47.59359,-54.27349
2021-07-16 14:04:01+00:00,204.0,7.61,204.0,8.5,14.0,47.59359,-54.27349
2021-07-16 14:14:01+00:00,197.0,7.12,205.0,8.03,14.08,47.59359,-54.27349
2021-07-16 14:24:01+00:00,196.0,7.71,205.0,8.63,14.08,47.59359,-54.27349
2021-07-16 14:34:01+00:00,180.0,6.76,204.0,7.75,14.08,47.59359,-54.27349
2021-07-16 14:44:01+00:00,199.0,8.12,202.0,9.57,14.08,47.59359,-54.27349
2021-07-16 14:54:01+00:00,177.0,7.47,201.0,8.52,14.08,47.59359,-54.27349
2021-07-16 15:04:01+00:00,192.0,7.98,205.0,9.32,14.08,47.59359,-54.27349
2021-07-16 15:14:01+00:00,192.0,7.03,203.0,8.2,13.84,47.59359,-54.27349
2021-07-16 15:24:01+00:00,189.0,7.75,200.0,8.79,13.84,47.59359,-54.27349
2021-07-16 15:34:01+00:00,199.0,7.07,198.0,7.87,13.84,47.59359,-54.27349
2021-07-16 15:44:01+00:00,210.0,7.55,210.0,8.58,13.84,47.59359,-54.27349
2021-07-16 15:54:01+00:00,218.0,7.66,230.0,8.75,13.84,47.59359,-54.27349
2021-07-16 16:04:01+00:00,216.0,7.13,218.0,8.16,13.84,47.59359,-54.27349
2021-07-16 16:14:01+00:00,215.0,8.21,215.0,9.13,14.0,47.59359,-54.27349
2021-07-16 16:24:01+00:00,212.0,8.31,214.0,9.04,14.0,47.59359,-54.27349
2021-07-16 16:34:01+00:00,209.0,8.47,214.0,9.44,14.0,47.59359,-54.27349
2021-07-16 16:44:01+00:00,212.0,8.4,214.0,9.33,14.0,47.59359,-54.27349
2021-07-16 16:54:01+00:00,209.0,8.48,205.0,9.61,14.0,47.59359,-54.27349
2021-07-16 17:04:01+00:00,211.0,8.64,214.0,9.67,14.0,47.59359,-54.27349
2021-07-16 17:14:01+00:00,207.0,8.77,206.0,9.66,14.0,47.59359,-54.27349
2021-07-16 17:24:01+00:00,213.0,8.84,214.0,9.51,14.0,47.59359,-54.27349
2021-07-16 17:34:01+00:00,215.0,7.91,215.0,9.21,14.0,47.59359,-54.27349
2021-07-16 17:44:01+00:00,213.0,8.95,208.0,9.98,14.0,47.59359,-54.27349
2021-07-16 17:54:01+00:00,213.0,8.2,212.0,8.97,14.0,47.59359,-54.27349
2021-07-16 18:04:01+00:00,212.0,8.09,209.0,8.99,14.0,47.59359,-54.27349
2021-07-16 18:14:01+00:00,201.0,8.49,203.0,9.14,14.0,47.59359,-54.27349
2021-07-16 18:24:01+00:00,203.0,8.42,201.0,9.08,14.0,47.59359,-54.27349
2021-07-16 18:34:01+00:00,212.0,8.73,211.0,9.47,14.0,47.59359,-54.27349
2021-07-16 18:44:01+00:00,217.0,7.24,217.0,8.7,14.0,47.59359,-54.27349
2021-07-16 18:54:01+00:00,215.0,7.88,215.0,9.0,14.0,47.59359,-54.27349
2021-07-16 19:04:01+00:00,210.0,8.58,212.0,9.27,14.0,47.59359,-54.27349
2021-07-16 19:14:01+00:00,206.0,8.53,208.0,9.34,13.84,47.59359,-54.27349
2021-07-16 19:24:01+00:00,200.0,8.65,201.0,9.39,13.84,47.59359,-54.27349
2021-07-16 19:34:01+00:00,204.0,8.76,205.0,9.54,13.84,47.59359,-54.27349
2021-07-16 19:44:01+00:00,203.0,8.4,204.0,9.53,13.84,47.59359,-54.27349
2021-07-16 19:54:01+00:00,208.0,7.74,208.0,8.58,13.84,47.59359,-54.27349
2021-07-16 20:04:01+00:00,203.0,6.86,204.0,7.82,13.84,47.59359,-54.27349
2021-07-16 20:14:01+00:00,199.0,7.16,203.0,7.87,13.84,47.59359,-54.27349
2021-07-16 20:24:01+00:00,199.0,7.06,198.0,7.75,13.84,47.59359,-54.27349
2021-07-16 20:34:01+00:00,198.0,7.11,199.0,7.88,13.84,47.59359,-54.27349
2021-07-16 20:44:01+00:00,186.0,8.25,189.0,9.12,13.84,47.59359,-54.27349
2021-07-16 20:54:01+00:00,195.0,7.45,195.0,8.36,13.84,47.59359,-54.27349
2021-07-16 21:04:01+00:00,214.0,6.6,222.0,7.53,13.84,47.59359,-54.27349
2021-07-16 21:14:01+00:00,209.0,6.76,210.0,7.57,13.6,47.59359,-54.27349
2021-07-16 21:24:01+00:00,207.0,6.39,210.0,6.99,13.6,47.59359,-54.27349
2021-07-16 21:34:01+00:00,210.0,6.21,211.0,6.87,13.6,47.59359,-54.27349
2021-07-16 21:44:01+00:00,205.0,5.97,207.0,6.53,13.6,47.59359,-54.27349
2021-07-16 21:54:01+00:00,212.0,6.08,213.0,6.66,13.6,47.59359,-54.27349
2021-07-16 22:04:01+00:00,208.0,6.24,205.0,7.36,13.6,47.59359,-54.27349
2021-07-16 22:14:01+00:00,211.0,6.24,212.0,6.71,13.44,47.59359,-54.27349
2021-07-16 22:24:01+00:00,206.0,6.15,208.0,6.87,13.44,47.59359,-54.27349
2021-07-16 22:34:01+00:00,210.0,6.41,212.0,7.11,13.44,47.59359,-54.27349
2021-07-16 22:44:01+00:00,205.0,7.21,195.0,10.75,13.44,47.59359,-54.27349
2021-07-16 22:54:01+00:00,212.0,7.06,211.0,7.71,13.44,47.59359,-54.27349
2021-07-16 23:04:01+00:00,209.0,6.81,211.0,7.61,13.44,47.59359,-54.27349
2021-07-16 23:14:00+00:00,216.0,7.6,222.0,8.57,13.13,47.59359,-54.27349
2021-07-16 23:24:00+00:00,210.0,6.84,216.0,7.63,13.13,47.59359,-54.27349
2021-07-16 23:34:00+00:00,219.0,6.57,223.0,7.48,13.13,47.59359,-54.27349
2021-07-16 23:44:00+00:00,215.0,7.14,215.0,7.86,13.13,47.59359,-54.27349
2021-07-16 23:54:00+00:00,213.0,7.05,220.0,7.93,13.13,47.59359,-54.27349
